[keps] orb08255.2l.amsat
Ray Hoad
r.hoad at att.net
Thu Sep 11 19:34:37 PDT 2008
SB KEPS @ AMSAT $ORB08255.N
2Line Orbital Elements 08255.AMSAT
HR AMSAT ORBITAL ELEMENTS FOR AMATEUR SATELLITES IN NASA FORMAT
FROM WA5QGD FORT WORTH,TX September 11, 2008
Send Subscribe/unsubscribe to KEPS at
http://www.amsat.org/mailman/listinfo/keps
BID: ORB08255.N
DECODE 2-LINE ELSETS WITH THE FOLLOWING KEY:
1 AAAAAU 00 0 0 BBBBB.BBBBBBBB .CCCCCCCC 00000-0 00000-0 0 DDDZ
2 AAAAA EEE.EEEE FFF.FFFF GGGGGGG HHH.HHHH III.IIII JJ.JJJJJJJJKKKKKZ
KEY: A-CATALOGNUM B-EPOCHTIME C-DECAY D-ELSETNUM E-INCLINATION F-RAAN
G-ECCENTRICITY H-ARGPERIGEE I-MNANOM J-MNMOTION K-ORBITNUM Z-CHECKSUM
TO ALL RADIO AMATEURS BT
AO-07
1 07530U 74089B 08254.68654535 -.00000027 00000-0 10000-3 0 2744
2 07530 101.4607 283.3062 0012197 095.2306 265.0152 12.53574162547693
AO-10
1 14129U 83058B 08254.17561490 -.00000150 00000-0 10000-3 0 05585
2 14129 026.0290 196.3494 5965835 155.8133 250.8737 02.05867831189854
UO-11
1 14781U 84021B 08255.87984014 .00000329 00000-0 51056-4 0 7653
2 14781 098.1486 291.1799 0009535 148.2877 211.8930 14.79663944316676
RS-15
1 23439U 94085A 08255.75424860 -.00000039 00000-0 10000-3 0 1442
2 23439 064.8193 355.0621 0146497 106.1293 255.5811 11.27552903564725
FO-29
1 24278U 96046B 08254.90667644 .00000011 00000-0 48318-4 0 08820
2 24278 098.5779 159.9515 0350996 353.8131 005.8732 13.52940146595987
SO-33
1 25509U 98061B 08254.88625973 .00000192 00000-0 28082-4 0 02788
2 25509 031.4299 191.7777 0354669 056.4785 306.9195 14.28224989515876
AO-40
1 26609U 00072B 08253.19399783 -.00000409 00000-0 10000-3 0 1168
2 26609 007.7644 061.8449 7932190 120.9689 338.5760 01.25588373 36093
VO-52
1 28650U 05017B 08255.79131998 -.00000226 00000-0 -22035-4 0 282
2 28650 097.7813 319.9904 0026365 216.6640 143.2754 14.81495785181424
PO-63
1 29712U 07001D 08255.68268116 .00000484 00000-0 70289-4 0 7878
2 29712 097.8679 312.2153 0015381 099.7182 260.5763 14.80261724 90261
AO-16
1 20439U 90005D 08254.88657523 -.00000000 00000-0 15231-4 0 04166
2 20439 098.2402 230.6076 0010114 284.9413 075.0657 14.31802163973184
LO-19
1 20442U 90005G 08255.89787235 .00000025 00000-0 24515-4 0 3380
2 20442 098.2094 239.8373 0010992 278.3947 081.5972 14.32040264973481
AO-27
1 22825U 93061C 08255.86966621 -.00000004 00000-0 15000-4 0 606
2 22825 098.3935 212.6793 0008743 011.3443 348.7934 14.29246591780158
IO-26
1 22826U 93061D 08254.57871818 .00000015 00000-0 22232-4 0 07701
2 22826 098.3860 212.3056 0009301 010.9962 349.1429 14.29495986780065
GO-32
1 25397U 98043D 08255.79904811 -.00000192 00000-0 -66861-4 0 6946
2 25397 098.3587 286.6581 0001386 029.0569 331.0678 14.23146928528534
NO-44
1 26931U 01043C 08255.83111072 .00000137 00000-0 85997-4 0 9748
2 26931 067.0526 061.4483 0007194 266.5116 093.5143 14.29533131362797
SO-50
1 27607U 02058C 08254.91726703 -.00000170 00000-0 -36853-5 0 06976
2 27607 064.5590 153.2733 0086242 262.8503 096.2771 14.71377919307589
CO-55
1 27844U 03031E 08254.87195301 -.00000001 00000-0 19868-4 0 03942
2 27844 098.7181 261.9568 0009033 226.3589 133.6826 14.20595126269605
CO-57
1 27848U 03031J 08254.59981435 .00000006 00000-0 23387-4 0 03457
2 27848 098.7185 260.7698 0008995 233.0368 126.9981 14.20403400269532
AO-51
1 28375U 04025K 08255.59004868 -.00000004 00000-0 11613-4 0 1955
2 28375 098.0681 275.2891 0082976 251.0939 108.1243 14.40617684220840
CO-56
1 28941U 06005C 08255.47511987 .00027991 26170-5 18817-3 0 3673
2 28941 098.1150 018.2712 0153924 086.8517 275.0324 15.61036871143481
CP3
1 31128U 07012M 08255.68334645 -.00000046 00000-0 00000 0 0 4292
2 31128 098.0335 315.4317 0104053 067.7055 293.5138 14.51973487 74485
CP4
1 31132U 07012Q 08254.97697256 -.00000130 00000-0 -18323-4 0 04149
2 31132 098.0334 317.3308 0086869 062.5391 298.4575 14.55140159074429
CO-65
1 32785U 08021C 08254.42969941 .00000255 00000-0 39429-4 0 01567
2 32785 097.9861 314.1083 0014070 216.3783 143.6481 14.81391049020020
NOAA-10
1 16969U 86073A 08254.67529674 .00000009 00000-0 21694-4 0 02819
2 16969 098.7200 276.4624 0011641 294.8848 065.1137 14.27367562143639
NOAA-11
1 19531U 88089A 08254.87691512 .00000191 00000-0 12143-3 0 03146
2 19531 098.7962 343.0008 0011371 180.7090 179.4089 14.14877223030020
NOAA-12
1 21263U 91032A 08254.97225860 .00000004 00000-0 20549-4 0 08567
2 21263 098.7713 256.9319 0011484 235.3833 124.6264 14.25545290900619
MET-3/5
1 21655U 91056A 08254.96250834 .00000051 00000-0 10000-3 0 05150
2 21655 082.5513 043.7681 0013716 154.0710 206.1101 13.17016842820879
MET-2/21
1 22782U 93055A 08255.48041534 .00000071 00000-0 50525-4 0 2477
2 22782 082.5463 043.1054 0023806 050.5646 309.7608 13.83630746759064
OKEAN-4
1 23317U 94066A 08254.90356706 .00000086 00000-0 76603-5 0 6905
2 23317 082.5371 235.0777 0021438 200.6557 159.3814 14.82633339750980
NOAA-14
1 23455U 94089A 08254.61756635 .00000211 00000-0 13560-3 0 02992
2 23455 098.9392 326.8813 0008583 260.8963 099.1260 14.13748578706424
NOAA-15
1 25338U 98030A 08254.89677379 -.00000124 00000-0 -34752-4 0 06166
2 25338 098.5626 244.6052 0011173 147.0688 213.1174 14.24722913537008
RESURS
1 25394U 98043A 08254.96255097 -.00000006 00000-0 15438-4 0 00206
2 25394 098.3775 294.9806 0001365 348.2617 011.8530 14.24169781528655
FENGYUN1
1 25730U 99025A 08254.98786204 .00000533 00000-0 33960-3 0 05682
2 25730 098.7279 227.8861 0020205 288.9159 070.9821 14.07772822481039
OKEAN-0
1 25860U 99039A 08255.56021411 .00000022 00000-0 10574-4 0 4698
2 25860 097.7582 242.3196 0001550 046.1530 313.9802 14.73535139492112
NOAA-16
1 26536U 00055A 08254.91873422 -.00000216 00000-0 -91737-4 0 00901
2 26536 099.1649 246.0043 0010399 350.1792 009.9190 14.12494404410871
NOAA-17
1 27453U 02032A 08254.63523026 .00000182 00000-0 97830-4 0 00852
2 27453 098.5267 316.7543 0011243 215.0243 145.0206 14.24001706322962
NOAA-18
1 28654U 05018A 08254.63165498 -.00000094 00000-0 -27607-4 0 05728
2 28654 098.8717 194.5271 0015437 073.0762 287.2098 14.11189698170520
HUBBLE
1 20580U 90037B 08254.95275816 .00000350 00000-0 14215-4 0 02196
2 20580 028.4675 123.8301 0003885 212.6701 147.3653 15.00406242807873
PO-34
1 25520U 98064B 08254.51194970 .00000407 00000-0 10275-4 0 00830
2 25520 028.4597 327.5175 0005508 137.4603 222.6419 15.17226285546137
ISS
1 25544U 98067A 08255.49905867 .00006927 00000-0 56319-4 0 2296
2 25544 051.6425 293.6415 0007002 102.3921 037.1452 15.72027705562115
CO-58
1 28895U 05043F 08254.66917600 .00000242 00000-0 60227-4 0 01180
2 28895 098.0860 146.6125 0018462 138.9041 221.3614 14.59695659152957
FALCON
1 30776U 07006E 08254.66672033 .00000292 00000-0 24341-4 0 04017
2 30776 035.4351 355.0570 0001747 353.0035 007.0657 15.03048021083010
MAST
1 31126U 07012K 08255.22665618 .00000037 00000-0 18752-4 0 4171
2 31126 098.0319 316.1876 0095810 065.5929 295.5244 14.53444034 74516
CAPE1
1 31130U 07012P 08255.81498783 .00000076 00000-0 28123-4 0 4017
2 31130 098.0329 315.5638 0103992 067.3158 293.8993 14.51990211 74294
COMPASS
1 32787U 08021E 08254.35701524 .00000361 00000-0 52970-4 0 01454
2 32787 097.9818 313.9731 0015109 217.7791 142.2362 14.81458591020017
AAUSAT2
1 32788U 08021F 08255.83289736 .00000069 00000-0 15669-4 0 1454
2 32788 097.9812 315.4612 0014568 213.9807 146.0447 14.81568837 20236
DO-64
1 32789U 08021G 08254.83065951 .00000299 00000-0 44986-4 0 01612
2 32789 097.9836 314.4943 0015082 215.5595 144.4606 14.81468245020087
CO-66
1 32791U 08021J 08254.43747248 .00000151 00000-0 26287-4 0 01494
2 32791 097.9845 314.0720 0015284 215.7708 144.2482 14.81311952019991
RS-30
1 32953U 08025A 08255.45368943 .00000010 00000-0 00000 0 0 1058
2 32953 082.4973 069.9371 0019919 067.2197 293.0990 12.42997338 13760
/EX
More information about the Keps
mailing list